sat.trackr.live / text

‹ back to catalog

COSMOS 2548

NORAD 47230 · 2020-091D

PAYLOAD ACTIVE UNKNOWN

§ Identity

Operator
Country
CIS
Launch date
2020-12-03
Launch site
PLMSC
Launch vehicle
Mass (kg)
RCS (m²)

External: N2YO · Heavens-Above · Gunter

§ Orbital elements

Epoch: 2026-09-13T05:29:10.893984Z

Period
115.86 min
Inclination
82.4943°
Eccentricity
0.0015319
Mean motion
12.42928993 rev/d
Perigee alt
1,482.2 km
Apogee alt
1,506.3 km
Semi-major
7,872.3 km
B*
-7.5192e-4
RAAN
246.8768°
Arg perigee
6.5696°
Mean anomaly
353.5581°
Rev number
26,199

§ Raw data

COSMOS 25481 47230U 20091D   26256.22859831 -.00000094  00000+0 -75192-3 0  99982 47230  82.4943 246.8768 0015319   6.5696 353.5581 12.42928993261996

JSON: /api/v1/satellites/47230 · /tle

For live sub-satellite position, see the globe view (requires WebGL).

§ Visibility from observer

Set your observer location to see the next 7 days of passes ≥ 10°. The values pass through the URL so the page stays shareable.

No JS? Fill the form by hand. The geolocation button needs JavaScript.